AirNav   TITAN Aviation Fuels
 
 1634 users online  

7TX4 Hillcrest Airport
Keller, Texas, USA

GOING TO KELLER?


FAA INFORMATION EFFECTIVE 08 SEPTEMBER 2022

Location

FAA Identifier: 7TX4
Lat/Long: 32-58-00.4490N 097-16-31.0570W
32-58.007483N 097-16.517617W
32.9667914,-97.2752936
(estimated)
Elevation: 710 ft. / 216 m (estimated)
Variation: 07E (1985)
From city: 2 miles N of KELLER, TX
Time zone: UTC -5 (UTC -6 during Standard Time)
Zip code: 76248

Airport Operations

Airport use: Private use. Permission required prior to landing
Activation date: 04/1983
Control tower: no
ARTCC: FORT WORTH CENTER
FSS: FORT WORTH FLIGHT SERVICE STATION
Attendance: UNATNDD
Wind indicator: yes
Segmented circle: no
Lights: SS-SR

Airport Communications

WX ASOS at AFW (2.6 nm NW): PHONE 817-491-6188
WX ASOS at FTW (10 nm SW): PHONE 817-740-3346
WX ASOS at DFW (13 nm E): PHONE 972-615-2608
WX ASOS at DTO (15 nm N): 119.325 (940-383-8457)
WX AWOS-3P at GPM (20 nm SE): 118.475 (972-606-1433)

Nearby radio navigation aids

VOR radial/distance  VOR name  Freq  Var
FUZr308/6.7RANGER VORTAC115.7006E
TTTr290/13.2MAVERICK VOR/DME113.1006E
CVEr278/19.3COWBOY VOR/DME116.2006E
MQPr059/39.2MILLSAP VORTAC117.7009E

 
NDB name  Hdg/Dist  Freq  Var  ID
MUFIN040/6.636508EFT ..-. -
MESQUITE281/38.824803EPQF .--. --.- ..-.

Airport Services

Runway Information

Runway 17/35

Dimensions: 2000 x 30 ft. / 610 x 9 m
Surface: asphalt
Runway edge lights: low intensity
RUNWAY 17  RUNWAY 35
Traffic pattern: rightleft
Displaced threshold: no340 ft.
Obstructions: none4 ft. fence, 30 ft. from runway

Airport Ownership and Management from official FAA records

Ownership: Privately-owned
Owner: HILLCREST AIRPORT HOMEOWNERS ASSN
12999 HILLCREST BLVD
KELLER, TX 76244
Manager: PRESIDENT OF HOMEOWNERS ASSN
12999 HILLCREST BLVD
KELLER, TX 76244
AMGR EMAIL HOAHILLCREST@YAHOO.COM

Airport Operational Statistics

Aircraft based on the field: 16
Single engine airplanes: 15
Helicopters: 1
    

Additional Remarks

FOR CD CTC REGIONAL APCH AT 972-615-2799.

Instrument Procedures

There are no published instrument procedures at 7TX4.

Some nearby airports with instrument procedures:

KAFW - Perot Field/Fort Worth Alliance Airport (3 nm NW)
KFTW - Fort Worth Meacham International Airport (10 nm SW)
4T2 - Kenneth Copeland Airport (11 nm W)
KDFW - Dallas-Fort Worth International Airport (13 nm E)
KNFW - Fort Worth Naval Air Station JRB (Carswell Field) Airport (15 nm SW)
KDTO - Denton Enterprise Airport (15 nm N)
KGPM - Grand Prairie Municipal Airport (20 nm SE)
 
Loc | Ops | Rwys | IFR | FBO | Links
Com | Nav | Svcs | Stats | Notes

City of Fort Worth
 
Area around 7TX4 (Hillcrest Airport)
 
Road maps at: MapQuest Bing Google
 
Aerial photo
WARNING: Photo may not be current or correct
Aerial photo of 7TX4 (Hillcrest Airport)
Taken in May 2007

Do you have a better or more recent aerial photo of Hillcrest Airport that you would like to share? If so, please send us your photo.

 
Sectional chart

 
Airport distance calculator
Flying to Hillcrest Airport? Find the distance to fly.

From to 7TX4

Sunrise and sunset
Times for 29-Sep-2022
 Local
(UTC-5)
 Zulu
(UTC)
Morning civil twilight06:5811:58
Sunrise07:2312:23
Sunset19:1600:16
Evening civil twilight19:4100:41

Current date and time
Zulu (UTC)  29-Sep-2022 18:30:47
Local (UTC-5)  29-Sep-2022 13:30:47
 
METAR
KAFW 
2nm W 
291753Z 13010G19KT 10SM CLR 25/08 A3019 RMK AO2 SLP214 T02500083 10250 20189 58015
KFTW 
9nm SW 
291753Z 11009KT 10SM CLR 25/09 A3019 RMK AO2 SLP216 T02500094 10250 20189 58019
KDFW 
14nm E 
291753Z 12008KT 10SM CLR 24/08 A3020 RMK AO2 SLP220 T02390083 10244 20183 58017
KDTO 
14nm N 
291753Z 13014G18KT 10SM CLR 24/06 A3022 RMK AO2 SLP224 T02390061 10250 20189 58016
KNFW 
15nm SW 
291752Z 15008G19KT 10SM CLR 26/11 A3020 RMK AO2 SLP209 T02610106 58020 $
KGPM 
20nm SE 
291750Z 13010KT 10SM SKC 25/05 A3022
TAF
KAFW 
2nm W 
291720Z 2918/3018 13011KT P6SM SKC
KFTW 
9nm SW 
291720Z 2918/3018 13010KT P6SM SKC
KDFW 
14nm E 
291720Z 2918/3024 13011KT P6SM SKC
KNFW 
15nm SW 
2915/3015 14015G20KT 9999 SKC QNH3009INS FM292000 10010G15KT 9999 SKC QNH3005INS BECMG 3007/3009 14009KT 9999 SKC QNH3007INS T28/2922Z T15/3013Z FN20070
NOTAMs
Click for the latest NOTAMs
NOTAMs are issued by the DoD/FAA and will open in a separate window not controlled by AirNav.

 

 
 

Would you like to see your business listed on this page?

 If your business provides an interesting product or service to pilots, flight crews, aircraft, or users of the Hillcrest Airport, you should consider listing it here.  To start the listing process, click on the button below
 
Add a business
 

Other Pages about Hillcrest Airport

www.intelcities.com/...
 
Update a link
 
Copyright © AirNav, LLC. All rights reserved. Privacy Policy  Contact